SL-8 DEB, 1590

Orbit data source: Space-Track

SL-8 DEB, 1590 is space debris in LEO originally from a launch on Sat, 18 Sep 1965 UTC launched from the Tyuratam Missile And Space Complex (TTMTR). Debris objects in space refer to the collection of defunct objects orbiting the Earth. Examples of debris include non-operational satellites, rocket bodies, and fragments generated from explosions, collisions, or faulty payload assembly.

Loading next visibility...
Identifier
1590, 1965-073G
Orbit
LEO
Country
Flag of CISCIS
Related business
Manufacturer
Unknown
Mission
Spacecraft
Bus & Motor
Unknown
Mass
Unknown
Launch date (UTC)
1965-09-18 (61 years ago)
Launch vehicle
Unknown
Launch site
Tyuratam Missile And Space Complex (TTMTR)
Object type
Payload
Rocket body
Debris
Shape & HBR
Unknown shape, 0.1 m
Radar Cross Section
Medium (>0.1 m² and <1 m²)

Expand to show TLE details & history
Last TLE update: 19 hours ago

TLE from 19 hours ago
0 SL-8 DEB
1 01590U 65073G   26199.49486667 -.00000412  00000-0 -19602-2 0  9992
2 01590  56.0856  11.0515 0178025  80.5960 313.8437 12.49856063762256
Epoch: 2026-07-18T11:52Z
TLE epoch observation values (Epoch: 2026-07-18T11:52:36.480Z)
Latitude
26.89373°
Longitude
-83.57267°
Altitude
1,371.163 km
Speed
7.22 km/s
True Right ascension
02h 03m 32s
True Declination
26° 45' 58"
Sunlit
Object was in daylight at epoch
Visualization orbit readout
Latitude
Unknown
Longitude
Unknown
Altitude
Unknown
Speed
Unknown
Apparent Right ascension
Unknown
Apparent Declination
Unknown
Sunlit
N/A
Visualization observer readout
Local Sidereal Time
19:46:53
Azimuth
Unknown
Elevation
Unknown
Doppler factor
Unknown
Orbital elements
Apogee altitude
1,604.542 km
Perigee altitude
1,325.29 km
Semi-major axis
7,843.053 km
Eccentricity
0.0178
Inclination
56.0856°
RAAN
11.0515°
Arg. of periapsis
80.596°
True anomaly
312.34952°
Mean anomaly
313.8437°
Eccentric anomaly
313.09892°
Mean motion
3.12475 °/min
Orbital period
115.21 mins
BSTAR
-0.0019602
Loading maneuver chart data...
Computing Atmospheric mass density...
Loading historical data...
Loading historical data...
Loading historical data...
Loading historical data...
Loading historical data...
Loading historical data...
Loading historical data...

Documentation

Showing up to 5 results
|